[[{"header":{"parameterUnit":"m.s-1","parameterCategory":1,"la1":30.2991,"la2":30.254,"lo1":-89.0895,"lo2":-89.0444,"dy":0.0017,"dx":0.0017,"nx":28,"ny":28,"refTime":"2024-05-31T09:00:00:Z","depth":0,"parameterNumber":2,"parameterNumberName":"U-component_of_WINDS"},"data":[0,0,0,0,0,0,0,0,0,0,0,0,0,0,0,0,0,0,0,0,0,0,0,0,0,0,0,0,0,0,0,0,0,0,0,0,0,0,0,0,0,0,0,0,0,0,0,0,0,0,0,0,0,0,0,0,0,0,0.4735,0.4734,0,0.4642,0.4641,0.464,0.4595,0.4595,0.4595,0.4595,0.4496,0.4493,0.4491,0,0,0,0,0,0,0,0,0,0,0,0,0,0.4868,0.4866,0.4735,0.4734,0.4732,0.4642,0.4641,0.4639,0.4595,0.4595,0.4595,0.4595,0.4497,0.4494,0.449,0,0,0,0,0,0,0,0,0,0,0,0,0,0.4796,0.4865,0.4735,0.4699,0.4695,0.4642,0.4641,0.4639,0.4595,0.4595,0.4595,0.4595,0.4498,0.4494,0.449,0.4464,0,0,0.4478,0.4476,0,0,0,0,0,0,0,0,0.48,0.4791,0.4706,0.4702,0.4697,0.463,0.4651,0.458,0.4595,0.4633,0.4595,0.4595,0.454,0.4533,0.4515,0.4459,0.4455,0.4477,0.4475,0.4473,0.4472,0,0,0,0,0,0,0,0.4805,0.4795,0.4698,0.4705,0.4699,0.4686,0.4676,0.4638,0.4587,0.463,0.4626,0.4616,0.4538,0.4519,0.4512,0.4454,0.4477,0.4474,0.4471,0.447,0.4369,0.4369,0,0,0,0,0,0,0.4817,0.48,0.4701,0.4695,0.475,0.4684,0.4673,0.4651,0.4588,0.4578,0.4616,0.4614,0.4526,0.4517,0.4509,0.4472,0.4473,0.4469,0.4467,0.4369,0.4369,0.4368,0,0,0,0,0,0,0.482,0.4808,0.4704,0.4746,0.4732,0.4682,0.4658,0.465,0.4631,0.4577,0.4568,0.4606,0.4526,0.4514,0.4475,0.4468,0.4468,0.4464,0.4369,0.4369,0.4369,0.44,0,0,0,0,0,0,0.4824,0.481,0.4801,0.4747,0.473,0.4674,0.4658,0.4648,0.4624,0.4621,0.4566,0.4557,0.4525,0.4481,0.4471,0.4463,0.4461,0.437,0.4369,0.4369,0.44,0.4401,0.4402,0,0,0,0,0,0.4829,0.4813,0.4801,0.4789,0.4718,0.4674,0.4664,0.4629,0.4624,0.4614,0.4579,0.4558,0.4471,0.4478,0.4466,0.4456,0.437,0.4369,0.4369,0.4399,0.4401,0.4402,0,0,0,0,0,0,0.4867,0.4805,0.4791,0.4758,0.4721,0.4667,0.4652,0.4632,0.4596,0.4594,0.4551,0.4539,0.4503,0.4475,0.4484,0.4426,0.4418,0.4415,0.4445,0.4447,0.4448,0.4455,0.4457,0,0,0,0,0,0.4872,0.4843,0.479,0.4765,0.4748,0.4703,0.4683,0.4659,0.4619,0.4603,0.4566,0.4527,0.449,0.4467,0.443,0.4396,0.4382,0.4383,0.4384,0.4386,0.4383,0.436,0.436,0.4366,0.4366,0.4366,0,0,0.4881,0.4844,0.4828,0.4772,0.4741,0.471,0.4691,0.4659,0.4635,0.4598,0.4559,0.453,0.4483,0.4445,0.4427,0.4421,0.4378,0.4385,0.4386,0.4383,0.436,0.4359,0.4358,0.4366,0.4366,0.4366,0,0,0.4881,0.4851,0.4826,0.4796,0.475,0.472,0.4714,0.4662,0.4641,0.4601,0.4572,0.4542,0.4481,0.4448,0.4423,0.441,0.4388,0.4399,0.4405,0.4384,0.4383,0.4382,0.4376,0.4374,0.4397,0.4397,0.4397,0,0.4898,0.4852,0.4816,0.4786,0.4761,0.4727,0.47,0.4672,0.4616,0.4598,0.4594,0.4514,0.4481,0.4434,0.4431,0.4412,0.4402,0.4405,0.4386,0.4385,0.4384,0.4377,0.4375,0.4398,0.4398,0.4398,0.4398,0,0.4873,0.4842,0.4827,0.4774,0.4748,0.472,0.4678,0.4655,0.4633,0.4603,0.4561,0.4519,0.4473,0.446,0.4438,0.441,0.4407,0.4395,0.4386,0.4385,0.4378,0.4375,0.44,0.44,0.4399,0.4399,0,0,0.4896,0.4823,0.4818,0.4793,0.4739,0.4713,0.4682,0.4637,0.4618,0.458,0.4551,0.4499,0.4487,0.4459,0.4433,0.4414,0.4403,0.4403,0.4401,0.4403,0.4367,0.4376,0.4373,0.4389,0.4389,0.4388,0.437,0,0.4888,0.4833,0.4799,0.4756,0.4725,0.4691,0.4664,0.4626,0.4597,0.4565,0.4532,0.4495,0.4483,0.4465,0.4445,0.4409,0.4395,0.441,0.436,0.4359,0.4372,0.437,0.4379,0.4364,0.4367,0.4367,0.4366,0,0.4871,0.4834,0.4789,0.4737,0.4722,0.4699,0.4654,0.4625,0.4581,0.456,0.4529,0.4502,0.4466,0.446,0.4408,0.4419,0.4397,0.4375,0.4374,0.4367,0.4362,0.4361,0.4359,0.4356,0.4362,0.4362,0.4362,0,0.489,0.4829,0.4794,0.4774,0.4712,0.4696,0.4669,0.4625,0.46,0.4561,0.4543,0.45,0.4476,0.4442,0.4403,0.4403,0.4354,0.4346,0.4335,0.4336,0.4325,0.4326,0.4318,0.4313,0.4313,0.4313,0.4313,0,0.4884,0.4857,0.4801,0.478,0.4748,0.4708,0.4677,0.4647,0.4608,0.4578,0.4546,0.4518,0.447,0.4435,0.4405,0.4365,0.4355,0.4336,0.4328,0.4338,0.434,0.4322,0.4322,0.4313,0.4313,0.4313,0.4313,0,0.4899,0.4861,0.482,0.4765,0.4751,0.4729,0.4681,0.4658,0.4626,0.4589,0.4578,0.4528,0.4486,0.4444,0.4387,0.4366,0.4326,0.4317,0.4342,0.4337,0.4327,0.4328,0.4306,0.43,0.4301,0.4301,0.4301,0,0.4898,0.4876,0.4819,0.4797,0.4771,0.4737,0.4711,0.467,0.4644,0.4592,0.4574,0.4529,0.4491,0.4425,0.4383,0.4338,0.4326,0.4321,0.4319,0.4329,0.4324,0.4325,0.4322,0.4322,0.4322,0.4322,0.4322,0,0.4898,0.488,0.4845,0.4802,0.4772,0.4737,0.47,0.4683,0.4635,0.4607,0.4564,0.4535,0.4476,0.4431,0.4382,0.4352,0.4328,0.4324,0.4318,0.4328,0.4343,0.4333,0.4343,0.4324,0.4324,0.4324,0.4324,0.4324,0.4903,0.4882,0.4838,0.4799,0.4767,0.4733,0.4708,0.4673,0.4637,0.4587,0.4565,0.4521,0.4475,0.4406,0.4376,0.434,0.4334,0.4327,0.4324,0.4323,0.4324,0.435,0.4331,0.4331,0.433,0.433,0.433,0,0.49,0.487,0.4835,0.4785,0.4753,0.4735,0.4693,0.4667,0.463,0.4589,0.4553,0.4502,0.4458,0.4412,0.4365,0.4344,0.4332,0.4333,0.4334,0.4327,0.4333,0.4342,0.4344,0.4344,0.4344,0.4344,0.4344,0.4344,0.4895,0.4858,0.4834,0.4779,0.4749,0.4706,0.4683,0.4651,0.4618,0.4564,0.4527,0.4498,0.4455,0.4404,0.4362,0.4349,0.4333,0.4337,0.4321,0.4328,0.4327,0.4326,0.4334,0.4334,0.4334,0.4317,0.4317,0.4317]},{"header":{"parameterUnit":"m.s-1","parameterCategory":1,"la1":30.2991,"la2":30.254,"lo1":-89.0895,"lo2":-89.0444,"dy":0.0017,"dx":0.0017,"nx":28,"ny":28,"refTime":"2024-05-31T09:00:00:Z","depth":0,"parameterNumber":3,"parameterNumberName":"V-component_of_WINDS"},"data":[0,0,0,0,0,0,0,0,0,0,0,0,0,0,0,0,0,0,0,0,0,0,0,0,0,0,0,0,0,0,0,0,0,0,0,0,0,0,0,0,0,0,0,0,0,0,0,0,0,0,0,0,0,0,0,0,0,0,6.2389,6.2393,0,6.2706,6.2709,6.2713,6.2741,6.2738,6.2734,6.2731,6.3057,6.3068,6.308,0,0,0,0,0,0,0,0,0,0,0,0,0,6.1807,6.1818,6.2389,6.2393,6.2397,6.2705,6.2709,6.2714,6.2742,6.2738,6.2734,6.273,6.3053,6.3067,6.3081,0,0,0,0,0,0,0,0,0,0,0,0,0,6.2085,6.1821,6.2388,6.2448,6.2456,6.2704,6.271,6.2715,6.2743,6.2738,6.2733,6.2728,6.3048,6.3066,6.3083,6.3294,0,0,6.3137,6.3145,0,0,0,0,0,0,0,0,6.2069,6.2107,6.2435,6.2444,6.2454,6.2679,6.2624,6.2909,6.2744,6.2634,6.2731,6.2725,6.2935,6.2962,6.3032,6.3309,6.3323,6.3139,6.3149,6.3157,6.3162,0,0,0,0,0,0,0,6.205,6.2093,6.2514,6.244,6.2452,6.2458,6.2492,6.2678,6.2809,6.2643,6.2646,6.2683,6.2939,6.3015,6.304,6.3328,6.3138,6.3154,6.3165,6.3172,6.3789,6.3794,0,0,0,0,0,0,6.202,6.2077,6.2504,6.2524,6.2245,6.2473,6.2511,6.2612,6.2807,6.2832,6.2687,6.2683,6.2988,6.302,6.3052,6.331,6.3157,6.3174,6.3184,6.3783,6.379,6.3797,0,0,0,0,0,0,6.2007,6.2057,6.2491,6.2301,6.2357,6.2488,6.2601,6.2621,6.2697,6.284,6.2864,6.2741,6.2985,6.3027,6.3232,6.3321,6.3182,6.3198,6.3776,6.3785,6.3793,6.3827,0,0,0,0,0,0,6.199,6.2053,6.2135,6.2303,6.2367,6.2667,6.2607,6.2631,6.2727,6.2725,6.2897,6.292,6.2984,6.3206,6.325,6.3343,6.3211,6.3769,6.378,6.3791,6.3819,6.3836,6.3851,0,0,0,0,0,6.1969,6.2133,6.2139,6.219,6.2472,6.2672,6.2709,6.2779,6.2734,6.2817,6.2909,6.2915,6.3304,6.3227,6.3277,6.3376,6.3764,6.3777,6.379,6.3812,6.3833,6.385,0,0,0,0,0,0,6.1974,6.2156,6.2165,6.2388,6.2514,6.2677,6.2784,6.2799,6.2942,6.2934,6.3014,6.3053,6.3255,6.3336,6.3247,6.3589,6.3529,6.3553,6.3529,6.355,6.3565,6.3542,6.3226,0,0,0,0,0,6.2,6.2147,6.2299,6.2481,6.2544,6.2652,6.2743,6.2785,6.2919,6.2973,6.308,6.321,6.3362,6.346,6.3608,6.383,6.3867,6.3923,6.3939,6.3951,6.3971,6.4092,6.4119,6.3839,6.3839,6.3839,0,0,6.2058,6.2175,6.2264,6.2485,6.2588,6.2738,6.2698,6.2859,6.2971,6.2998,6.3198,6.328,6.3431,6.3645,6.3745,6.3719,6.4056,6.3968,6.3976,6.399,6.4108,6.4135,6.4158,6.3848,6.3846,6.3845,0,0,6.2238,6.2343,6.2504,6.2607,6.2763,6.2834,6.2872,6.3032,6.3087,6.3289,6.3312,6.3445,6.3705,6.3811,6.3898,6.4114,6.4125,6.4159,6.4243,6.4361,6.4383,6.4403,6.4479,6.4505,6.4178,6.4179,6.4179,0,6.229,6.2517,6.2586,6.2746,6.2841,6.287,6.3034,6.3131,6.3327,6.3392,6.3359,6.3684,6.3787,6.4025,6.4077,6.4148,6.4194,6.4141,6.4374,6.4395,6.4414,6.4488,6.4516,6.4182,6.4181,6.4181,6.4181,0,6.2572,6.2729,6.2841,6.3027,6.3135,6.3297,6.3388,6.3489,6.3521,6.3594,6.3798,6.3922,6.4094,6.4153,6.4187,6.4396,6.4375,6.4357,6.4299,6.4443,6.4513,6.4542,6.4186,6.4185,6.4184,6.4183,0,0,6.2769,6.2988,6.3028,6.3111,6.3283,6.3405,6.3566,6.3733,6.3817,6.395,6.4086,6.4303,6.4287,6.4386,6.4431,6.4534,6.4695,6.4504,6.4509,6.4535,6.4931,6.4944,6.4975,6.4702,6.4708,6.4712,6.4918,0,6.2969,6.3256,6.332,6.3567,6.3712,6.3739,6.3879,6.3998,6.407,6.4203,6.4282,6.4434,6.4402,6.4462,6.4565,6.4653,6.4776,6.4639,6.483,6.4836,6.4792,6.5012,6.5027,6.5216,6.4946,6.4951,6.4955,0,6.3243,6.3379,6.364,6.3789,6.3852,6.3976,6.4132,6.4259,6.4394,6.4439,6.4547,6.4581,6.4748,6.468,6.491,6.4816,6.4897,6.4952,6.4961,6.4983,6.4905,6.504,6.5278,6.5306,6.4999,6.4995,6.4992,0,6.3359,6.3608,6.3795,6.3866,6.4045,6.4131,6.421,6.434,6.4435,6.4571,6.4633,6.4787,6.4872,6.499,6.5063,6.5007,6.5288,6.5226,6.533,6.5328,6.5389,6.5384,6.5644,6.544,6.544,6.5439,6.5438,0,6.3576,6.3735,6.385,6.3965,6.4142,6.4213,6.4387,6.4465,6.4579,6.471,6.4743,6.4864,6.4953,6.5087,6.5145,6.5327,6.5365,6.5405,6.5419,6.5403,6.5398,6.5459,6.5448,6.5447,6.5445,6.5443,6.5442,0,6.3738,6.3821,6.4027,6.4177,6.4219,6.4343,6.4471,6.4584,6.4654,6.4819,6.4862,6.4973,6.5132,6.5215,6.5415,6.5454,6.5657,6.5663,6.5611,6.5617,6.5716,6.5705,6.6024,6.6069,6.5834,6.5836,6.5838,0,6.3872,6.3994,6.4156,6.4244,6.4324,6.4467,6.4563,6.4636,6.4735,6.4895,6.4988,6.5148,6.528,6.5532,6.5631,6.5783,6.5793,6.5894,6.5817,6.5796,6.5795,6.5787,6.5799,6.5908,6.5911,6.5912,6.5914,0,6.41,6.4134,6.4271,6.4421,6.4534,6.4657,6.4778,6.4848,6.4941,6.505,6.5211,6.5313,6.5515,6.5673,6.5831,6.5912,6.5929,6.5937,6.5969,6.5955,6.5919,6.5939,6.5649,6.593,6.5928,6.5927,6.5926,6.5926,6.4253,6.4361,6.4491,6.4641,6.4739,6.485,6.4962,6.5045,6.518,6.5349,6.5383,6.5554,6.5683,6.5897,6.5982,6.6116,6.6096,6.6142,6.6154,6.6165,6.6169,6.5896,6.6145,6.6145,6.6144,6.6144,6.6144,0,6.4483,6.4566,6.4703,6.487,6.4987,6.4989,6.5122,6.5221,6.537,6.5488,6.5616,6.58,6.5953,6.6061,6.6216,6.6303,6.6314,6.6341,6.6336,6.6354,6.6178,6.6135,6.6329,6.6329,6.6329,6.6329,6.6329,6.6329,6.4617,6.4799,6.4848,6.5078,6.5161,6.5327,6.5402,6.5504,6.5599,6.5802,6.5928,6.5997,6.6112,6.6274,6.6414,6.6442,6.6497,6.6524,6.6553,6.6387,6.6367,6.6348,6.6308,6.6535,6.6536,6.6718,6.6719,6.672]}]]